Wind_Speed
3 2 9 12 5 5 5 5 7 5 9 6 13 13 22 20 17 14 18 18 17 18 26 30 33 32 33 34 34 33 33 30 28 26 24 21 19 18 14 13 12 11 15 19
4 9 14 6 8 8 9 12 11 5 19 6 11 18 20 21 21 20 19 18 20 18 15 26 32 31 35 37 37 35 36 35 32 28 25 21 18 16 16 14 17 20 22 19
7 11 2 6 11 9 11 8 6 13 11 8 11 4 15 16 15 16 17 17 16 20 19 19 27 33 35 35 40 40 40 34 35 32 26 22 16 16 14 13 15 17 19 17
7 10 8 7 10 7 8 1 6 6 6 6 7 5 10 17 17 17 18 17 19 19 19 19 25 27 33 38 42 43 40 34 30 32 29 25 23 24 24 20 21 17 13 12
10 5 8 7 15 7 7 2 6 5 3 6 3 5 5 13 14 18 20 21 22 21 21 22 27 33 37 37 39 44 42 38 35 32 32 30 26 26 21 20 19 19 17 19
9 4 5 10 14 13 3 3 8 5 3 2 7 7 4 16 27 23 23 23 22 21 21 22 32 32 31 35 39 42 41 40 37 36 33 31 28 25 23 23 24 25 22 22
7 11 10 5 8 5 7 7 4 4 4 6 3 2 10 19 19 28 26 25 23 21 19 19 19 26 28 33 36 38 41 40 39 36 34 30 28 27 23 21 23 20 19 19
7 7 7 5 8 9 5 8 6 5 2 5 5 6 12 14 21 21 26 26 21 20 19 20 22 29 31 33 35 33 35 30 33 33 32 29 26 25 24 20 18 21 19 11
6 7 5 5 6 10 5 2 8 7 2 3 4 5 6 8 9 10 13 17 20 21 20 21 23 30 28 12 9 16 24 25 28 29 26 25 20 19 19 18 21 21 16 8
3 2 6 11 3 1 9 5 1 3 1 4 5 4 4 5 7 6 8 8 15 15 19 17 16 14 18 20 13 14 17 15 9 8 4 3 21 16 12 13 29 20 19 10
9 4 7 0 4 9 1 1 5 5 5 6 1 6 6 6 9 9 9 6 6 9 10 9 14 24 28 29 22 24 21 18 11 18 10 26 18 35 20 18 38 37 27 25
10 6 9 14 10 6 9 12 7 5 5 1 4 5 5 4 8 11 10 8 5 6 11 14 19 24 24 25 21 24 22 17 19 21 22 20 27 34 30 29 36 34 36 36
8 4 8 10 7 4 6 6 6 5 4 6 6 5 2 2 8 9 14 10 7 10 11 11 13 16 18 15 14 11 9 6 7 14 18 25 32 31 25 33 25 27 27 30
13 6 10 12 8 4 5 7 6 8 4 5 6 6 5 5 10 8 10 11 11 8 8 8 9 14 18 16 15 17 14 10 8 9 13 19 25 26 28 30 29 20 23 23
14 10 8 8 9 6 3 6 10 7 7 7 8 12 11 12 12 11 14 12 13 11 10 9 9 10 15 19 24 25 22 18 12 12 6 8 11 17 19 20 15 13 11 12
5 7 8 10 9 8 5 9 8 6 2 3 5 6 7 5 9 14 17 16 13 12 11 10 7 12 15 21 25 25 24 21 16 14 10 7 8 8 11 6 6 9 13 16
7 8 5 10 5 8 3 7 5 6 5 8 6 8 10 5 10 16 16 18 15 13 14 10 7 12 17 21 24 22 20 17 14 11 8 7 6 3 4 9 11 12 15 15
5 7 5 8 5 10 8 7 8 6 7 7 3 14 13 11 7 11 16 20 17 16 14 12 16 19 24 26 24 22 23 21 18 14 10 7 4 3 5 7 9 11 12 15
6 5 3 6 6 4 4 6 6 5 5 4 11 18 16 18 19 8 9 17 19 17 19 19 23 26 25 24 23 24 20 17 13 11 10 10 10 12 13 13 12 13 14 17
6 4 5 4 6 11 7 5 6 6 4 7 22 21 21 12 7 4 7 15 15 23 23 24 26 25 23 19 18 18 17 15 14 12 9 6 6 8 8 10 13 16 16 16
3 3 8 3 3 6 6 10 6 6 8 13 20 24 19 8 7 14 14 14 22 24 23 25 25 24 23 19 16 17 13 12 9 8 7 8 10 11 12 14 13 14 14 13
6 6 4 3 4 4 4 0 10 8 2 16 9 8 18 22 23 20 18 18 19 21 21 25 25 23 19 15 14 15 14 9 12 12 12 17 15 16 16 16 16 16 16 17
2 7 6 8 7 6 3 8 6 9 13 9 19 17 26 25 22 21 16 15 16 22 22 23 24 23 17 15 15 16 11 12 14 14 15 15 15 16 18 16 19 16 19 16
3 4 4 3 1 3 3 5 3 17 16 16 19 23 24 25 21 19 18 16 17 21 21 24 26 21 20 18 15 12 10 11 12 15 16 16 19 21 19 19 20 22 15 13
5 4 5 1 3 6 10 4 13 15 20 21 19 23 24 24 19 19 16 13 18 20 22 25 24 23 20 14 12 12 13 13 14 14 13 12 15 18 21 19 20 23 14 16
2 7 4 6 8 6 3 6 14 23 21 23 26 19 16 21 20 17 13 19 21 21 25 24 22 23 17 13 13 14 14 13 12 10 11 12 13 12 15 17 17 18 18 13
Wind_Direction
293 87 229 236 195 246 272 250 256 217 161 130 165 158 177 179 179 178 175 182 186 188 191 187 193 189 192 196 196 200 204 209 212 216 221 229 242 255 266 279 279 277 277 266
343 232 232 231 256 241 254 263 240 174 162 120 171 170 181 181 186 184 181 182 183 183 175 187 185 183 188 194 200 204 207 209 213 214 216 223 232 252 269 262 263 263 269 274
177 235 75 227 277 277 281 231 166 181 160 35 125 146 192 199 189 187 193 192 188 184 180 181 181 184 188 194 199 205 210 213 214 216 217 219 229 239 247 253 260 265 269 268
229 267 268 276 270 254 257 253 279 160 110 171 183 214 207 191 193 196 196 194 197 192 190 187 188 186 182 192 197 203 205 206 206 214 213 216 226 239 243 252 264 273 261 242
236 244 235 246 248 250 224 150 62 83 89 117 225 92 230 175 201 201 201 201 200 198 192 190 191 193 192 189 193 202 205 207 207 207 211 216 225 238 249 255 254 254 249 237
239 276 164 227 264 233 109 54 46 64 106 36 217 156 241 178 204 199 203 204 201 200 198 197 197 193 193 195 195 203 207 210 213 214 215 221 228 234 245 255 266 269 252 250
314 265 249 217 257 355 75 60 4 356 3 228 302 63 233 209 198 197 197 204 203 200 199 195 194 195 192 194 197 196 205 207 214 216 222 224 232 238 252 262 272 279 269 275
183 299 198 224 194 193 176 144 149 198 216 274 4 251 263 206 187 192 197 201 197 199 199 197 197 196 197 196 197 194 199 200 212 220 225 226 233 240 241 252 259 279 282 327
161 256 281 185 212 141 239 156 188 123 100 35 275 284 319 82 110 138 191 202 199 199 195 199 197 199 200 175 166 194 201 199 209 219 228 231 233 250 263 281 286 265 262 294
243 244 221 258 162 149 153 169 79 7 189 283 294 293 237 93 122 128 84 173 200 203 195 197 191 138 145 153 168 178 189 180 204 188 124 6 359 334 266 253 272 298 279 238
182 97 275 93 187 184 34 121 66 121 130 169 241 276 215 172 151 124 119 98 121 172 181 138 127 143 156 156 144 126 131 155 181 172 152 144 264 287 293 253 241 260 284 279
192 163 233 245 258 227 186 189 146 129 261 162 142 277 339 156 137 114 112 101 66 72 121 125 132 138 144 144 140 126 114 126 165 160 176 200 234 244 261 263 251 259 259 288
177 208 246 309 343 8 203 185 143 117 89 190 130 253 95 180 102 114 120 105 93 90 81 108 129 134 125 112 92 96 127 152 194 195 204 205 236 247 265 252 279 272 261 288
155 144 185 226 206 176 193 179 172 138 127 187 194 175 170 188 127 99 105 108 102 93 100 102 89 84 97 65 77 105 115 124 144 187 201 215 232 249 260 263 268 263 263 284
161 187 170 201 204 176 185 222 183 165 187 164 222 169 192 186 149 129 125 115 109 105 95 88 96 102 89 84 89 91 96 125 109 108 135 207 240 262 253 241 255 273 288 302
225 210 151 210 213 180 211 218 220 205 151 234 136 198 193 181 121 125 132 128 123 118 117 113 124 121 95 100 97 99 104 115 127 134 138 179 214 238 257 251 279 303 307 310
176 164 132 217 195 131 230 207 191 223 198 170 156 202 147 152 127 134 134 131 134 137 135 128 109 95 114 125 123 120 124 132 128 131 144 152 168 190 309 315 313 314 313 313
175 174 175 191 104 219 241 176 153 169 234 197 106 141 143 129 88 118 136 130 136 139 126 117 120 119 120 120 115 113 115 111 107 97 88 72 41 355 328 313 308 313 318 313
160 133 120 141 178 237 247 191 156 140 274 181 130 121 122 114 94 40 128 134 139 134 125 129 127 121 120 115 113 110 103 100 88 62 38 18 4 348 337 329 322 308 302 305
97 78 125 121 143 208 211 205 137 103 247 161 140 145 149 147 123 193 144 129 123 116 127 125 122 116 110 106 108 96 79 65 47 26 11 357 336 331 323 320 318 324 328 324
75 32 175 143 155 276 243 209 113 152 229 170 163 164 165 155 143 136 133 122 120 126 124 121 119 113 112 114 110 97 85 67 42 19 9 6 8 6 5 352 356 356 357 358
163 141 182 93 116 246 214 38 154 195 33 154 136 122 110 117 119 126 130 127 128 124 118 119 114 109 106 105 100 89 72 43 19 16 21 18 23 14 13 14 7 12 11 3
162 176 180 171 203 219 251 215 186 148 145 160 139 139 132 130 128 129 127 122 113 121 122 125 117 105 95 88 86 80 53 21 15 22 19 13 10 12 11 12 17 22 14 26
254 157 120 87 322 132 177 64 100 142 146 146 138 137 133 129 129 123 118 116 121 127 129 128 113 103 91 87 72 59 28 22 28 24 19 11 5 9 18 18 32 29 24 31
201 96 127 66 0 84 27 92 120 104 112 114 122 133 133 126 128 127 124 124 125 124 125 116 110 108 105 92 66 40 34 35 34 26 17 12 19 27 24 29 40 32 41 55
220 164 152 206 206 129 131 121 130 124 129 130 128 125 125 129 129 125 122 125 126 119 120 113 109 117 110 91 73 61 49 43 34 28 20 13 21 21 24 20 17 25 20 7
Height
763 787 798 781 780 776 780 789 791 774 767 780 787 795 793 790 794 800 802 803 804 805 808 812 817 822 827 832 835 838 842 844 848 851 854 857 857 857 859 857 855 851 847 846
782 796 766 766 766 774 780 789 784 766 763 777 789 795 789 787 788 789 794 797 796 799 804 808 813 819 823 826 830 834 836 840 845 848 851 853 854 854 855 856 852 849 844 845
794 766 754 766 770 777 778 774 769 767 770 773 790 810 800 789 787 787 788 788 790 790 795 802 808 812 816 821 825 828 830 836 840 844 848 850 851 851 851 850 848 846 844 843
780 752 761 766 772 767 789 746 749 761 784 815 781 840 809 794 794 790 787 787 785 786 788 793 798 804 809 812 817 819 824 831 836 841 846 847 849 848 846 844 842 843 843 843
775 758 764 771 761 750 763 739 749 759 780 790 790 819 795 792 802 790 782 778 776 777 779 784 788 794 799 805 810 815 821 825 828 833 838 842 845 844 844 843 838 836 838 840
762 737 747 751 739 738 731 746 770 781 798 825 796 807 811 794 775 776 770 769 769 772 774 778 782 788 795 800 802 808 815 820 825 828 832 836 840 843 844 842 841 838 834 835
767 757 741 736 753 737 752 787 832 826 833 830 786 802 787 758 752 753 759 759 761 765 769 775 780 783 788 792 795 801 805 812 817 824 828 834 839 843 845 844 843 840 836 832
796 793 747 730 743 756 760 780 828 837 847 823 787 807 766 734 727 735 740 744 753 759 763 769 772 775 779 783 788 796 801 811 819 824 827 830 835 840 840 840 841 843 841 837
795 782 731 728 725 735 759 782 771 806 810 828 807 768 744 735 743 744 749 748 752 751 757 761 767 771 775 796 802 809 806 813 815 821 826 830 833 837 838 837 839 841 841 840
755 781 744 728 722 729 746 748 790 812 823 834 815 795 794 761 757 749 752 750 747 746 750 757 764 779 785 789 795 800 807 814 824 819 829 829 843 840 836 832 833 836 835 833
748 766 759 734 749 755 760 770 779 792 811 832 835 814 766 758 753 755 756 753 748 749 751 761 769 776 781 784 784 792 798 804 811 818 818 820 842 840 839 833 829 828 828 831
739 768 779 761 734 728 737 756 770 811 809 811 817 810 754 747 745 747 754 756 754 752 751 760 768 774 780 784 790 794 795 801 810 814 814 810 820 823 825 833 828 824 823 826
732 767 779 776 758 736 745 744 757 776 792 804 819 809 753 754 752 750 755 758 759 758 761 764 769 776 783 792 795 797 798 803 807 813 811 809 802 813 816 823 826 821 822 820
705 751 757 771 771 748 752 743 744 762 803 797 796 781 769 761 756 756 758 760 762 764 768 772 777 785 790 793 795 799 800 800 807 809 808 806 806 810 814 820 824 820 820 819
705 745 746 741 735 734 733 739 742 756 760 776 768 771 768 759 754 757 756 760 765 771 777 781 786 790 792 794 796 797 798 802 805 806 806 807 809 811 815 819 818 817 816 815
708 735 731 741 728 732 735 730 731 742 745 745 753 763 744 746 744 753 755 760 768 773 779 784 788 791 791 792 794 797 800 803 807 807 808 809 811 814 817 817 817 815 813 812
717 722 744 748 728 736 752 736 730 731 730 735 762 746 743 749 747 753 757 758 766 772 778 783 787 789 794 797 799 801 804 806 807 810 812 815 817 817 815 813 812 812 811 809
713 718 728 746 740 768 720 706 710 722 720 722 728 732 735 746 749 753 751 756 768 772 776 783 789 793 797 800 802 804 807 809 811 814 815 816 816 816 815 814 813 811 808 805
695 721 742 755 758 734 715 708 711 720 727 717 732 733 743 744 748 766 759 756 763 769 776 786 790 795 799 801 804 806 809 812 815 816 816 814 813 812 811 810 809 808 807 804
697 704 719 748 755 763 721 695 689 703 747 721 717 729 735 734 768 775 765 766 772 774 782 786 791 796 798 802 804 805 809 810 813 815 816 817 817 816 813 810 807 804 800 797
716 722 726 745 743 732 701 686 685 742 743 714 710 714 724 736 738 756 765 772 774 780 787 792 796 799 802 805 807 810 812 815 816 816 815 814 812 809 807 805 803 800 797 793
711 728 734 740 738 737 680 683 710 705 699 698 714 722 732 737 745 757 766 771 779 785 794 798 800 803 804 807 808 810 812 814 814 812 810 808 806 805 804 801 798 795 791 787
705 699 713 714 719 687 679 677 673 677 690 702 702 719 723 735 747 757 766 774 781 788 792 800 801 802 806 807 809 810 813 813 812 810 809 808 806 803 801 798 795 791 787 783
675 676 693 694 683 681 678 676 674 672 681 691 700 714 722 736 747 758 763 773 783 789 794 800 798 803 805 808 809 811 813 812 811 810 808 806 803 801 798 795 792 789 786 785
679 670 688 698 689 680 684 678 679 686 690 701 712 716 725 734 751 758 767 776 783 788 793 792 796 799 805 808 811 811 811 809 808 807 806 805 802 800 798 797 795 793 791 788
672 678 688 701 683 681 692 686 684 686 696 702 709 727 736 739 751 761 769 776 782 788 792 794 796 800 806 809 810 810 811 809 809 809 807 806 804 803 801 798 797 796 794 790